EHI
0 0 0 0 0 0 0 0 0 0 0 0 0 0 0 0 0 0 0 0 0 0 0 0 1 0 0 0 0 0 0 0 0 0 0 0 0 0 0 0 0 0 0 0 0 0 0 0 0
0 0 0 0 0 0 0 0 0 0 0 0 0 0 0 0 0 0 0 0 0 0 0 0 2 3 3 2 1 1 0 0 0 0 0 0 0 0 0 0 0 0 0 0 0 0 0 0 0
0 0 0 0 0 0 0 0 0 0 0 0 0 0 0 0 0 0 0 0 0 0 0 1 4 8 10 7 6 4 2 0 0 0 0 0 0 0 0 0 0 0 0 0 0 0 0 0 0
0 0 0 0 0 0 0 0 0 0 0 0 0 0 0 0 0 0 0 0 0 0 0 1 4 9 10 9 10 8 3 1 1 1 1 0 0 0 0 0 0 0 0 0 0 0 0 0 0
0 0 0 0 0 0 0 0 0 0 0 0 0 0 0 0 0 0 0 0 0 0 0 0 2 5 5 5 6 5 3 1 1 1 1 1 0 0 0 0 0 0 0 0 0 0 0 0 0
0 0 0 0 0 0 0 0 0 0 0 0 0 0 0 0 0 0 0 0 0 0 0 0 0 1 1 1 1 1 1 1 0 1 1 1 1 1 1 0 0 0 0 0 0 0 0 0 0
0 0 0 0 0 0 0 0 0 0 0 0 0 0 0 0 0 0 0 0 0 0 0 0 0 0 0 0 0 0 0 0 0 0 0 0 0 0 0 0 0 0 0 0 0 0 0 0 0
0 0 0 0 0 0 0 0 0 0 0 0 0 0 0 0 0 0 0 0 0 0 0 0 0 0 0 0 0 0 0 0 0 0 0 0 0 0 0 0 0 1 0 0 0 0 0 0 0
0 0 0 0 0 0 0 0 0 0 0 0 0 0 0 0 0 0 0 0 0 0 0 0 0 0 0 0 0 0 0 0 0 0 0 0 0 0 0 0 0 0 0 0 0 0 0 0 0
0 0 0 0 0 0 0 0 0 0 0 0 0 0 0 0 0 0 0 0 0 0 0 0 0 0 0 0 0 0 0 0 0 0 0 0 0 0 0 0 0 0 0 0 0 0 0 0 0
0 0 0 0 0 0 0 0 0 0 0 0 0 0 0 0 0 0 0 0 0 0 0 0 0 0 0 0 0 0 0 0 0 0 0 0 0 0 0 0 0 0 0 0 0 0 0 0 0
0 0 0 0 0 0 0 0 0 0 0 0 0 0 0 0 0 0 0 0 0 0 0 0 0 0 0 0 0 0 0 0 0 0 0 0 0 0 0 0 0 0 0 0 0 0 0 0 0
0 0 0 0 0 0 0 0 0 0 0 0 0 0 0 0 0 0 0 0 0 0 0 0 0 0 0 0 0 0 0 0 0 0 0 0 0 0 0 0 0 0 0 0 0 0 0 0 0
0 0 0 0 0 0 0 0 0 0 0 0 0 0 0 0 0 0 0 0 0 0 0 0 0 0 0 0 0 0 0 0 0 0 0 0 0 0 0 0 0 0 0 0 0 0 0 0 0
0 0 0 0 0 0 0 0 0 0 0 0 0 0 0 0 0 0 0 0 0 0 0 0 0 0 0 0 0 0 0 0 0 0 0 0 0 0 0 0 0 0 0 0 0 0 0 0 0
0 0 0 0 0 0 0 0 0 0 0 0 0 0 0 0 0 0 0 0 0 0 0 0 0 0 0 0 0 0 0 0 0 0 0 0 0 0 0 0 0 0 0 0 0 0 0 0 0
0 0 0 0 0 0 0 0 0 0 0 0 0 0 0 0 0 0 0 0 0 0 0 0 0 0 0 0 0 0 0 0 0 0 0 0 0 0 0 0 0 0 0 0 0 0 0 0 0
0 0 0 0 0 0 0 0 0 0 0 0 0 0 0 0 0 0 0 0 0 0 0 0 0 0 0 0 0 0 0 0 0 0 0 0 0 0 0 0 0 0 0 0 0 0 0 0 0
0 0 0 0 0 0 0 0 0 0 0 0 0 0 0 0 0 0 0 0 0 0 0 0 0 0 0 0 0 0 0 0 0 0 0 0 0 0 0 0 0 0 0 0 0 0 0 0 0
0 0 0 0 0 0 0 0 0 0 0 0 0 0 0 0 0 0 0 0 0 0 0 0 0 0 0 0 0 0 0 0 0 0 0 0 0 0 0 0 0 0 0 0 0 0 0 0 0
0 0 0 0 0 0 0 0 0 0 0 0 0 0 0 0 0 0 0 0 0 0 0 0 0 0 0 0 0 0 0 0 0 0 0 0 0 0 0 0 0 0 0 0 0 0 0 0 0
0 0 0 0 0 0 0 0 0 0 0 0 0 0 0 0 0 0 0 0 0 0 0 0 0 0 0 0 0 0 0 0 0 0 0 0 0 0 0 0 0 0 0 0 0 0 0 0 0
0 0 0 0 0 0 0 0 0 0 0 0 0 0 0 0 0 0 0 0 0 0 0 0 0 0 0 0 0 0 0 0 0 0 0 0 0 0 0 0 0 0 0 0 0 0 0 0 0
0 0 0 0 0 0 0 0 0 0 0 0 0 0 0 0 0 0 0 0 0 0 0 0 0 0 0 0 0 0 0 0 0 0 0 0 0 0 0 0 0 0 0 0 0 0 0 0 0
0 0 0 0 0 0 0 0 0 0 0 0 0 0 0 0 0 0 0 0 0 0 0 0 0 0 0 0 0 0 0 0 0 0 0 0 0 0 0 0 0 0 0 0 0 0 0 0 0
0 0 0 0 0 0 0 0 0 0 0 0 0 0 0 0 0 0 0 0 0 0 0 0 0 0 0 0 0 0 0 0 0 0 0 0 0 0 0 0 0 0 0 0 0 0 0 0 0
0 0 0 0 0 0 0 0 0 0 0 0 0 0 0 0 0 0 0 0 0 0 0 0 0 0 0 0 0 0 0 0 0 0 0 0 0 0 0 0 0 0 0 0 0 0 0 0 0
0 0 0 0 0 0 0 0 0 0 0 0 0 0 0 0 0 0 0 0 0 0 0 0 0 0 0 0 0 0 0 0 0 0 0 0 0 0 0 0 0 0 0 0 0 0 0 0 0
0 0 0 0 0 0 0 0 0 0 0 0 0 0 0 0 0 0 0 0 0 0 0 0 0 0 0 0 0 0 0 0 0 0 0 0 0 0 0 0 0 0 0 0 0 0 0 0 0
0 0 0 0 0 0 0 0 0 0 0 0 0 0 0 0 0 0 0 0 0 0 0 0 0 0 0 0 0 0 0 0 0 0 0 0 0 0 0 0 0 0 0 0 0 0 0 0 0
Wind_Speed
7 5 3 3 4 9 13 8 8 11 10 12 13 14 17 16 12 10 13 21 19 13 11 11 11 10 9 9 8 8 8 9 9 9 9 9 9 9 8 9 8 7 7 7 7 7 7 6 5
6 3 3 2 8 13 11 9 12 11 8 5 11 15 16 16 15 11 16 21 17 16 15 18 19 14 12 10 10 9 9 9 10 10 10 10 11 11 10 10 9 8 7 8 8 8 8 8 7
2 3 1 5 11 12 10 9 8 9 14 10 10 13 12 12 13 13 17 18 16 17 17 20 24 22 18 15 13 12 12 11 11 11 11 12 12 12 11 11 10 8 7 7 8 8 8 8 8
3 1 4 12 20 14 11 10 6 6 12 16 10 13 12 12 11 14 16 17 17 18 18 21 27 26 25 24 22 19 18 16 15 14 14 13 14 13 13 12 11 9 8 8 7 7 7 7 7
2 4 11 16 17 13 14 14 14 13 9 15 13 13 11 12 14 14 15 18 19 19 19 21 27 27 27 27 26 25 24 22 20 19 18 16 15 15 14 13 12 10 9 8 7 6 5 5 6
2 4 11 15 14 12 13 17 12 19 14 12 11 11 11 14 15 14 16 18 20 20 20 20 25 25 26 27 27 26 25 24 23 22 21 19 17 16 15 13 12 11 10 9 8 7 6 5 5
5 7 11 13 12 10 10 12 20 13 17 14 10 8 8 17 14 13 16 18 20 21 20 19 20 20 22 24 26 25 25 25 24 24 24 21 18 16 15 14 13 12 11 11 10 9 8 7 6
3 6 9 8 9 9 9 10 13 18 14 12 11 10 9 14 12 12 15 18 20 21 21 20 20 19 18 17 22 23 23 24 23 23 24 22 18 16 15 14 15 14 13 12 11 10 10 9 8
2 7 8 6 7 8 7 9 11 14 17 18 17 16 12 11 13 14 17 20 21 21 20 20 20 20 18 16 17 18 18 20 20 18 22 18 14 14 13 16 17 16 15 13 12 11 10 9 9
6 7 9 8 9 13 14 14 10 11 16 18 17 16 14 14 16 20 21 22 22 22 21 19 19 19 18 14 13 12 12 14 15 15 17 13 12 11 13 14 15 16 15 13 10 10 10 11 8
9 9 10 13 15 15 13 13 10 9 14 15 14 15 15 17 19 20 20 19 19 18 19 19 18 18 17 13 12 9 9 10 12 16 17 14 11 10 10 8 9 11 12 10 9 8 7 7 7
12 13 9 9 10 11 13 12 15 16 13 12 13 14 15 18 18 18 18 18 17 18 19 19 18 17 16 14 11 10 9 9 10 12 16 13 10 11 11 8 10 9 7 9 9 7 8 9 9
12 13 19 22 23 21 21 19 17 16 13 12 13 15 16 17 17 16 16 17 18 19 19 19 19 18 16 13 11 11 10 10 11 10 12 14 11 12 12 10 9 10 9 10 9 9 10 9 9
15 18 16 14 15 13 18 15 10 11 10 12 13 15 15 16 16 16 17 18 19 19 19 19 19 18 17 14 13 11 11 11 10 10 13 14 12 12 12 12 11 10 10 11 11 12 11 10 8
19 17 14 10 11 12 12 14 11 9 9 11 13 13 14 15 15 16 16 16 17 18 18 18 18 18 18 16 15 11 11 12 11 11 13 14 14 14 13 11 11 10 12 13 11 12 10 10 10
7 7 7 6 4 4 2 9 9 6 8 11 11 11 12 13 15 14 15 15 16 17 18 18 16 18 18 16 15 11 11 12 11 11 11 15 16 16 13 11 11 12 12 10 10 10 10 10 10
5 4 6 6 5 2 4 10 8 6 8 10 10 10 11 12 14 14 15 16 16 17 18 18 18 18 18 17 14 13 12 12 11 11 11 14 16 16 14 11 11 13 11 10 10 10 10 11 11
3 4 4 4 5 5 9 13 10 7 7 8 9 10 11 12 13 14 15 16 16 17 18 18 18 18 17 14 12 11 12 11 11 11 12 16 14 16 14 11 13 13 11 11 11 13 11 11 11
2 4 5 5 4 5 11 13 9 6 6 8 9 10 11 12 12 12 14 16 17 18 19 19 19 18 15 13 13 13 13 12 11 11 15 15 16 16 14 11 13 12 11 13 14 12 13 11 10
4 5 5 6 6 5 10 9 7 6 6 7 8 10 11 13 13 13 15 16 16 17 18 18 18 17 16 14 12 12 13 11 11 12 13 15 16 15 12 13 12 12 12 13 13 13 10 10 9
3 1 1 6 6 6 9 9 9 6 4 5 6 8 11 12 13 13 14 15 15 16 17 16 18 17 16 16 12 12 10 10 10 12 12 15 16 15 14 14 13 13 12 11 13 13 13 10 10
1 2 2 8 9 6 10 6 12 9 4 3 7 10 12 13 12 12 13 15 15 15 15 16 17 16 16 16 14 16 13 12 14 12 12 16 16 15 14 14 14 13 12 12 12 12 12 11 10
4 2 3 7 7 4 8 8 7 9 6 2 7 11 12 13 12 12 13 14 14 14 14 15 16 15 16 16 16 15 13 12 12 13 15 15 14 14 15 15 14 14 12 13 14 14 13 10 10
2 3 4 4 5 7 4 7 3 6 2 3 8 11 13 13 12 12 12 13 13 13 14 14 15 15 16 16 16 15 16 16 16 17 16 14 12 13 16 16 15 14 13 13 14 14 15 12 12
3 5 4 4 5 1 4 5 3 8 4 5 9 12 13 13 12 12 13 14 14 14 15 14 15 15 16 16 16 16 16 17 16 16 15 15 13 13 16 16 15 14 14 14 14 14 13 14 13
5 6 6 8 8 4 3 3 6 7 3 4 8 11 12 13 12 11 12 13 13 14 15 15 15 15 16 16 16 15 16 12 12 15 15 14 13 13 17 18 17 17 16 15 14 12 13 12 13
2 2 4 6 6 8 4 4 6 4 2 5 9 12 14 13 12 11 12 13 13 14 14 14 15 15 16 16 16 15 16 15 15 16 15 13 14 14 17 18 17 17 16 15 15 11 13 13 12
4 2 2 4 8 9 7 2 2 5 2 7 11 14 14 13 11 11 12 12 13 13 13 14 14 15 15 16 15 13 15 15 15 15 16 16 17 17 18 18 18 17 17 16 14 13 13 14 12
1 2 1 1 4 7 10 4 7 4 4 8 12 13 14 12 11 11 12 12 13 13 13 14 14 15 15 16 16 16 15 15 15 14 16 16 16 17 18 18 18 17 17 16 14 14 15 14 13
1 2 1 5 4 5 8 2 8 3 4 8 12 13 12 11 11 12 12 13 13 14 14 14 14 15 15 15 15 15 15 15 15 15 16 16 17 16 17 17 17 17 17 16 15 16 15 14 13
Wind_Direction
322 317 277 243 157 93 80 55 61 68 64 58 61 69 67 51 32 53 1 355 355 9 14 19 15 0 354 348 344 341 340 337 334 333 332 330 327 323 318 319 315 310 307 297 287 280 277 272 263
321 299 248 251 116 99 79 62 61 49 33 75 64 62 62 50 28 22 355 347 2 15 17 16 11 3 355 347 341 336 332 329 326 323 322 320 318 316 312 316 312 309 312 309 293 281 273 270 265
290 281 313 73 77 77 74 44 45 63 48 45 69 50 47 23 12 3 349 348 13 22 22 21 18 17 13 5 355 346 338 330 324 319 316 313 311 310 309 313 313 307 306 309 304 287 271 265 260
265 201 78 85 79 59 46 31 22 90 52 28 69 68 71 30 5 354 356 8 24 27 26 26 23 25 24 22 18 12 4 354 343 333 324 315 309 307 309 308 309 304 297 299 301 295 278 268 261
266 91 92 88 81 71 52 37 48 54 56 27 58 82 66 25 12 9 15 23 29 29 27 28 27 27 27 26 25 24 20 16 9 1 349 335 322 314 310 308 307 300 293 293 294 296 289 275 265
89 93 97 90 90 81 60 34 42 49 48 28 39 85 65 23 14 18 25 30 33 32 28 27 27 27 27 27 25 24 21 18 16 12 3 354 342 329 319 314 311 304 296 291 290 290 288 278 270
83 80 94 101 94 71 48 47 34 41 42 30 5 70 63 20 16 25 32 34 35 32 29 26 23 22 22 26 23 22 20 17 15 13 7 359 353 346 340 333 325 315 302 292 285 282 280 276 268
46 102 102 92 89 74 56 64 49 38 48 36 34 55 37 16 22 31 38 37 34 31 28 23 21 19 15 16 20 17 17 14 11 11 6 359 354 354 352 352 349 337 321 305 289 279 275 272 266
28 91 88 75 91 88 71 86 72 66 72 67 63 63 53 35 35 36 36 33 30 27 24 20 17 15 11 9 10 10 12 11 7 7 4 358 355 355 350 355 350 347 341 324 304 287 276 268 246
50 83 68 50 85 103 81 80 96 83 67 66 63 59 50 42 38 38 34 28 24 21 18 17 15 11 8 5 4 3 5 4 4 3 0 356 352 350 347 341 346 344 338 325 318 305 279 256 250
59 71 88 75 93 105 96 75 71 101 63 55 55 51 44 42 40 38 34 29 24 18 16 14 13 9 7 2 359 358 356 357 357 359 358 352 350 346 347 341 341 340 336 335 326 308 289 277 266
84 50 72 89 92 91 96 97 75 71 82 73 64 55 49 45 41 35 29 24 19 17 14 9 9 7 4 360 354 354 353 352 352 353 355 353 348 345 345 337 337 334 333 330 323 311 298 288 274
90 90 78 87 89 91 94 91 90 85 87 81 71 61 52 46 41 36 28 23 18 14 10 6 4 4 360 356 351 351 350 349 346 348 352 353 347 343 341 333 334 331 331 326 320 310 305 292 281
109 113 106 100 97 91 93 90 86 90 93 82 69 60 52 46 37 31 24 19 15 11 6 3 1 0 356 354 350 347 345 344 345 347 349 351 347 342 336 330 331 331 330 325 314 308 304 292 280
122 116 110 109 111 127 102 78 87 105 96 80 70 63 54 45 38 31 23 16 11 7 3 2 357 356 355 352 349 345 343 344 343 344 345 350 347 341 335 328 327 332 327 321 316 311 303 295 287
153 148 117 91 107 163 177 104 106 112 93 77 66 58 52 44 36 29 22 15 10 5 2 360 357 354 354 351 346 344 342 343 342 342 342 348 344 342 334 328 328 331 325 321 320 315 309 299 290
187 166 131 117 54 120 124 125 123 115 94 77 62 51 42 37 30 24 19 13 9 5 1 358 357 354 352 349 345 342 341 342 340 342 344 344 342 342 335 328 330 330 326 325 323 322 316 304 296
159 155 134 109 61 92 114 126 126 111 91 76 59 44 34 28 22 17 12 10 7 4 0 357 355 354 351 348 342 341 340 341 340 342 343 341 340 341 336 331 333 332 327 327 325 323 318 305 295
96 133 119 91 94 99 123 133 132 122 88 63 46 33 24 18 15 14 9 8 4 2 359 356 354 353 353 349 343 341 339 339 339 340 339 339 339 339 337 336 334 333 328 324 321 324 320 316 309
133 132 117 113 110 116 140 141 138 119 80 54 36 25 15 5 4 6 5 5 2 359 356 352 352 350 352 347 339 336 331 333 335 335 334 336 336 337 335 336 333 331 326 323 324 323 317 315 316
121 4 180 156 130 143 156 176 178 151 117 75 44 24 15 6 358 358 359 360 359 359 355 350 349 346 349 345 340 336 335 334 338 337 334 334 333 333 333 333 332 329 327 321 321 318 316 313 309
148 30 239 174 185 186 209 248 175 178 166 59 28 18 9 2 355 355 355 357 357 356 353 348 347 346 348 346 346 343 341 339 337 335 330 330 331 331 333 332 330 329 325 321 319 318 312 307 305
2 359 228 203 222 218 204 260 145 176 209 11 14 8 2 357 352 351 355 354 354 354 352 348 346 347 349 348 347 343 341 338 333 334 332 333 331 331 332 333 329 326 324 322 319 315 310 305 300
295 169 139 174 214 246 189 233 155 169 187 14 5 360 356 354 349 348 351 352 351 353 352 348 346 347 348 347 346 344 342 339 336 338 336 334 330 330 332 332 328 325 324 322 319 315 311 305 300
344 298 272 253 235 257 109 240 56 120 93 21 354 349 349 348 346 346 348 350 350 351 351 347 346 346 348 347 346 342 342 338 336 337 334 332 330 331 331 330 326 325 324 322 320 317 312 309 305
10 346 352 317 312 327 188 270 108 137 97 3 348 345 345 347 347 346 348 348 348 348 349 347 346 345 346 345 343 341 341 337 334 333 331 329 328 327 327 327 325 324 324 323 322 316 315 313 311
339 34 358 288 283 276 238 132 147 182 251 343 348 348 350 348 347 346 346 349 348 348 348 346 344 344 344 344 341 339 339 337 334 331 330 329 328 326 328 326 326 324 323 322 323 316 317 317 315
25 63 257 298 316 306 299 250 130 164 333 347 348 349 349 349 348 347 347 350 349 347 345 345 344 342 341 341 340 336 336 336 333 330 331 330 329 328 327 327 327 325 323 323 323 317 316 320 318
58 114 62 294 295 298 306 21 93 105 17 347 346 349 348 349 349 348 349 350 348 347 346 344 343 342 341 340 338 336 335 335 333 332 332 331 329 329 328 327 326 326 325 325 321 319 317 319 320
20 51 292 301 293 261 286 10 118 90 6 348 345 349 351 351 349 347 347 347 347 347 345 342 341 341 340 338 335 334 334 334 334 334 333 331 330 329 327 327 326 326 326 325 321 319 315 314 319